Benson, MN

10:49 AM CST on December 16, 2017 (GMT -0600)
Benson Municipal

Weather History for KBBB - July, 2013

Change the Weather History Date:

Saturday, July 13, 2013

  Actual Average Record
Temperature  
Mean Temperature 76 °F -  
Max Temperature 80 °F 84 °F 98 °F (1976)
Min Temperature 71 °F 62 °F 42 °F (2007)
Cooling Degree Days 10    
Growing Degree Days 26 (Base 50)    
Moisture  
Dew Point 67 °F    
Average Humidity 75    
Maximum Humidity 83    
Minimum Humidity 65    
Precipitation  
Precipitation 0.00 in - - ()
Sea Level Pressure  
Sea Level Pressure 29.93 in    
Wind  
Wind Speed 7 mph (SSE)    
Max Wind Speed 15 mph    
Max Gust Speed 21 mph    
Visibility 10 miles    
Events      
Averages and records for this station are not official NWS values.
T = Trace of Precipitation, MM = Missing Value Source: NWS Daily Summary

Daily Weather History Graph

Daily Weather History Graph

Search for Another Location

Airport or City:

Trip Planner

Search our weather history database for the weather conditions in past years. The results will help you decide how hot, cold, wet, or windy it might be!

Date:

Astronomy

Jul. 13, 2013 Rise Set
Actual Time 5:47 AM CDT 9:08 PM CDT
Civil Twilight 5:11 AM CDT 9:45 PM CDT
Nautical Twilight 4:23 AM CDT 10:32 PM CDT
Astronomical Twilight 3:23 AM CDT 11:32 PM CDT
Moon 11:22 AM CDT (7/13) 11:30 PM CDT (7/13)
Length of Visible Light 16h 34m
Length of Day
15h 21m
Waxing Crescent, 26% of the Moon is Illuminated
Jul 13
Waxing Crescent
Jul 15
First Quarter
Jul 22
Full
Jul 29
Last Quarter
Aug 6
New

Hourly Weather History & Observations

Time (CDT) Temp. Heat Index Dew Point Humidity Pressure Visibility Wind Dir Wind Speed Gust Speed Precip Events Conditions
12:12 AM 77.0 °F - 68.0 °F 74% 29.85 in 10.0 mi SSW 5.8 mph - N/A   Scattered Clouds
12:33 AM 78.8 °F - 66.2 °F 65% 29.86 in 10.0 mi Calm Calm - N/A   Mostly Cloudy
12:53 AM 77.0 °F - 68.0 °F 74% 29.86 in 10.0 mi Calm Calm - N/A   Overcast
1:12 AM 75.2 °F - 68.0 °F 78% 29.87 in 10.0 mi SE 3.5 mph - N/A   Mostly Cloudy
1:33 AM 75.2 °F - 68.0 °F 78% 29.86 in 10.0 mi SE 5.8 mph - N/A   Scattered Clouds
1:53 AM 73.4 °F - 68.0 °F 83% 29.86 in 10.0 mi SE 4.6 mph - N/A   Clear
2:12 AM 73.4 °F - 68.0 °F 83% 29.87 in 10.0 mi ESE 4.6 mph - N/A   Clear
2:33 AM 73.4 °F - 68.0 °F 83% 29.88 in 10.0 mi SE 5.8 mph - N/A   Clear
2:52 AM 73.4 °F - 66.2 °F 78% 29.88 in 10.0 mi SE 6.9 mph - N/A   Clear
3:12 AM 73.4 °F - 66.2 °F 78% 29.88 in 10.0 mi SE 5.8 mph - N/A   Clear
3:33 AM 73.4 °F - 66.2 °F 78% 29.87 in 10.0 mi SE 8.1 mph - N/A   Clear
3:52 AM 73.4 °F - 66.2 °F 78% 29.88 in 10.0 mi SE 5.8 mph - N/A   Clear
4:13 AM 73.4 °F - 66.2 °F 78% 29.87 in 10.0 mi SE 6.9 mph - N/A   Clear
4:33 AM 73.4 °F - 66.2 °F 78% 29.88 in 10.0 mi SSE 4.6 mph - N/A   Scattered Clouds
4:52 AM 73.4 °F - 66.2 °F 78% 29.88 in 10.0 mi SSE 8.1 mph - N/A   Mostly Cloudy
5:13 AM 73.4 °F - 66.2 °F 78% 29.88 in 10.0 mi SSE 9.2 mph - N/A   Overcast
5:33 AM 73.4 °F - 66.2 °F 78% 29.88 in 10.0 mi South 10.4 mph - N/A   Overcast
5:52 AM 73.4 °F - 66.2 °F 78% 29.88 in 10.0 mi South 8.1 mph - N/A   Overcast
6:13 AM 73.4 °F - 66.2 °F 78% 29.89 in 10.0 mi SSE 9.2 mph - N/A   Overcast
6:33 AM 73.4 °F - 66.2 °F 78% 29.91 in 10.0 mi SSE 6.9 mph - N/A   Overcast
6:52 AM 73.4 °F - 66.2 °F 78% 29.91 in 10.0 mi SSE 9.2 mph - N/A   Overcast
7:13 AM 73.4 °F - 66.2 °F 78% 29.91 in 10.0 mi South 9.2 mph - N/A   Overcast
7:32 AM 73.4 °F - 66.2 °F 78% 29.91 in 10.0 mi South 10.4 mph - N/A   Overcast
7:53 AM 73.4 °F - 66.2 °F 78% 29.92 in 10.0 mi SSE 10.4 mph 16.1 mph N/A   Overcast
8:13 AM 73.4 °F - 66.2 °F 78% 29.93 in 10.0 mi South 12.7 mph 18.4 mph N/A   Overcast
8:32 AM 73.4 °F - 66.2 °F 78% 29.94 in 10.0 mi South 13.8 mph 19.6 mph N/A   Overcast
8:53 AM 73.4 °F - 66.2 °F 78% 29.94 in 10.0 mi South 15.0 mph 19.6 mph N/A   Overcast
9:13 AM 71.6 °F - 64.4 °F 78% 29.94 in 10.0 mi South 11.5 mph 18.4 mph N/A   Overcast
9:32 AM 71.6 °F - 66.2 °F 83% 29.94 in 10.0 mi South 8.1 mph - N/A   Overcast
9:53 AM 73.4 °F - 66.2 °F 78% 29.94 in 10.0 mi South 8.1 mph - N/A   Overcast
10:13 AM 73.4 °F - 66.2 °F 78% 29.95 in 10.0 mi South 9.2 mph - N/A   Overcast
10:32 AM 73.4 °F - 66.2 °F 78% 29.96 in 10.0 mi South 6.9 mph - N/A   Overcast
10:53 AM 75.2 °F - 68.0 °F 78% 29.96 in 10.0 mi South 10.4 mph - N/A   Overcast
11:13 AM 75.2 °F - 68.0 °F 78% 29.96 in 10.0 mi South 12.7 mph 16.1 mph N/A   Overcast
11:32 AM 73.4 °F - 66.2 °F 78% 29.95 in 10.0 mi South 13.8 mph 19.6 mph N/A   Mostly Cloudy
11:53 AM 73.4 °F - 66.2 °F 78% 29.92 in 10.0 mi SSE 12.7 mph 20.7 mph N/A   Light Drizzle
12:13 PM 73.4 °F - 66.2 °F 78% 29.91 in 10.0 mi South 12.7 mph 20.7 mph N/A   Clear
12:32 PM 73.4 °F - 66.2 °F 78% 29.92 in 10.0 mi South 13.8 mph - N/A   Clear
12:53 PM 73.4 °F - 64.4 °F 73% 29.95 in 10.0 mi Calm Calm - N/A   Clear
1:12 PM 73.4 °F - 66.2 °F 78% 29.97 in 10.0 mi SW 6.9 mph - N/A   Scattered Clouds
1:32 PM 73.4 °F - 66.2 °F 78% 29.98 in 10.0 mi SW 8.1 mph - N/A   Mostly Cloudy
1:53 PM 73.4 °F - 66.2 °F 78% 29.97 in 10.0 mi SSW 6.9 mph - N/A   Overcast
2:12 PM 75.2 °F - 66.2 °F 73% 29.97 in 10.0 mi SSW 8.1 mph - N/A   Overcast
2:33 PM 78.8 °F - 68.0 °F 69% 29.97 in 10.0 mi SSW 5.8 mph - N/A   Mostly Cloudy
2:53 PM 78.8 °F - 66.2 °F 65% 29.97 in 10.0 mi South 6.9 mph - N/A   Mostly Cloudy
3:12 PM 78.8 °F - 68.0 °F 69% 29.97 in 10.0 mi South 8.1 mph - N/A   Scattered Clouds
3:33 PM 78.8 °F - 68.0 °F 69% 29.96 in 10.0 mi SSE 8.1 mph - N/A   Clear
3:53 PM 78.8 °F - 68.0 °F 69% 29.96 in 10.0 mi South 8.1 mph - N/A   Clear
4:12 PM 78.8 °F - 68.0 °F 69% 29.96 in 10.0 mi South 9.2 mph - N/A   Clear
4:33 PM 80.6 °F 83.2 °F 68.0 °F 65% 29.96 in 10.0 mi South 10.4 mph - N/A   Clear
4:53 PM 78.8 °F - 68.0 °F 69% 29.96 in 10.0 mi SE 10.4 mph - N/A   Clear
5:12 PM 78.8 °F - 68.0 °F 69% 29.96 in 10.0 mi SSE 9.2 mph - N/A   Mostly Cloudy
5:33 PM 78.8 °F - 69.8 °F 74% 29.96 in 10.0 mi SSE 9.2 mph - N/A   Overcast
5:52 PM 78.8 °F - 68.0 °F 69% 29.97 in 10.0 mi SE 10.4 mph - N/A   Overcast
6:12 PM 78.8 °F - 68.0 °F 69% 29.97 in 10.0 mi SSE 10.4 mph - N/A   Overcast
6:33 PM 77.0 °F - 66.2 °F 69% 29.97 in 10.0 mi SSE 11.5 mph 17.3 mph N/A   Overcast
6:52 PM 75.2 °F - 66.2 °F 73% 29.97 in 10.0 mi SSE 10.4 mph - N/A   Overcast
7:13 PM 75.2 °F - 66.2 °F 73% 29.97 in 10.0 mi SSE 11.5 mph - N/A   Overcast
7:33 PM 75.2 °F - 66.2 °F 73% 29.96 in 10.0 mi SSE 11.5 mph - N/A   Overcast
7:52 PM 75.2 °F - 66.2 °F 73% 29.97 in 10.0 mi SSE 9.2 mph 16.1 mph N/A   Overcast
8:13 PM 73.4 °F - 66.2 °F 78% 29.96 in 10.0 mi SE 6.9 mph - N/A   Overcast
8:33 PM 73.4 °F - 66.2 °F 78% 29.96 in 10.0 mi SE 8.1 mph - N/A   Overcast
8:52 PM 73.4 °F - 66.2 °F 78% 29.95 in 10.0 mi SE 8.1 mph - N/A   Overcast
9:13 PM 73.4 °F - 66.2 °F 78% 29.95 in 10.0 mi SE 10.4 mph - N/A   Overcast
9:33 PM 73.4 °F - 66.2 °F 78% 29.96 in 10.0 mi SE 8.1 mph - N/A   Overcast
9:52 PM 73.4 °F - 66.2 °F 78% 29.97 in 10.0 mi SE 10.4 mph - N/A   Overcast
10:13 PM 73.4 °F - 66.2 °F 78% 29.98 in 10.0 mi SE 10.4 mph - N/A   Mostly Cloudy
10:32 PM 73.4 °F - 64.4 °F 73% 29.99 in 10.0 mi SSE 11.5 mph - N/A   Overcast
10:53 PM 75.2 °F - 64.4 °F 69% 30.00 in 10.0 mi SSE 9.2 mph - N/A   Overcast
11:13 PM 75.2 °F - 64.4 °F 69% 30.01 in 10.0 mi SSE 9.2 mph - N/A   Overcast
11:32 PM 75.2 °F - 64.4 °F 69% 30.01 in 10.0 mi SSE 9.2 mph - N/A   Overcast
11:53 PM 75.2 °F - 64.4 °F 69% 30.02 in 10.0 mi SSE 8.1 mph - N/A   Overcast